Regional Weather Roundup
Issued by NWS

Home | Current Version | Previous Version | Text Only | Print | Product List | Glossary On
Versions: 1 2 3 4 5 6 7 8 9 10 11 12 13 14 15 16 17 18 19 20 21 22 23 24 25 26 27 28 29 30 31 32 33 34 35 36 37 38 39 40 41 42 43 44 45 46 47 48 49 50
000
ASUS46 KSTO 230715
RWRCA

NORTHERN AND CENTRAL CA REGIONAL WEATHER ROUNDUP
NATIONAL WEATHER SERVICE SACRAMENTO CA
1100 PM PST WED FEB 22 2017

NOTE: FAIR INDICATES FEW OR NO CLOUDS BELOW 12,000 FEET WITH NO
SIGNIFICANT WEATHER AND/OR OBSTRUCTIONS TO VISIBILITY.

CAZ001-003-230800-
NORTHWEST AREA

CITY           SKY/WX    TMP DP  RH WIND       PRES   REMARKS
CRESCENT CITY  PTCLDY    38  35  89 E8        30.26F WCI  32
UKIAH          CLEAR     38  33  82 CALM      30.22R
$$

CAZ006-505>513-230800-
BAY AREA

CITY           SKY/WX    TMP DP  RH WIND       PRES   REMARKS
SANTA ROSA     CLEAR     40  34  79 NW9       30.21S WCI  34
SAN RAFAEL     N/A       44  MM  MM MISG
NAPA           CLEAR     45  35  68 W14       30.21R
CONCORD        CLEAR     46  35  65 VRB7      30.21R
OAKLAND CITY   N/A      MM  MM  MM MISG
OAKLAND        PTCLDY    48  34  58 NW18G25   30.22S
SAN FRAN CITY  N/A       46  MM  52 MISG
SAN FRAN ARPT  PTCLDY    47  33  58 NW15      30.23S
LIVERMORE      CLEAR     41  33  73 W12       30.19F
HAYWARD        CLEAR     46  31  55 NW14      30.21F
REDWOOD CITY   N/A       45  MM  72 MISG
MOFFETT ARPT   CLEAR     46  36  68 NW8       30.23F
SAN JOSE ARPT  PTCLDY    46  34  62 W13       30.23S
$$
CAZ034-037-514>518-230800-
CENTRAL COAST

CITY           SKY/WX    TMP DP  RH WIND       PRES   REMARKS
WATSONVILLE    CLEAR     40  36  86 W7        30.23S
SALINAS        CLEAR     44  36  73 W6        30.23S
MONTEREY       PTCLDY    49  37  63 W12G21    30.23S
SAN LUIS OBISP CLEAR     45  36  70 NW7       30.20R
SANTA MARIA    CLEAR     44  39  82 CALM      30.19S
$$
CAZ015-016-230800-
NORTHERN SACRAMENTO VALLEY

CITY           SKY/WX    TMP DP  RH WIND       PRES   REMARKS
REDDING        PTCLDY    39  34  82 N5        30.13S
RED BLUFF      CLEAR     41  30  65 N7        30.15S
OROVILLE       MOCLDY    44  38  79 CALM      30.16S
$$
CAZ016>018-230800-
SOUTHERN SACRAMENTO VALLEY

CITY           SKY/WX    TMP DP  RH WIND       PRES   REMARKS
AUBURN         PTCLDY    37  34  87 SE3       30.13S
BEALE AFB      MOCLDY    41  35  81 E8        30.14R
LINCOLN        PTSUNNY   37  34  87 SE7       30.15S WCI  32
MARYSVILLE     CLOUDY    41  37  86 CALM      30.16R
SAC INTL ARPT  CLEAR     40  35  83 CALM      30.15F
MATHER AIRPORT CLEAR     37  36  93 S5        30.17S WCI  34
DOWNTOWN SAC   N/A       43  MM  MM MISG
SAC EXEC ARPT  CLEAR     38  36  92 S3        30.17S
VACAVILLE      CLEAR     46  31  55 NW14      30.17S
TRAVIS AFB     CLEAR     44  33  67 W13       30.15S
$$
CAZ019>021-230800-
SAN JOAQUIN VALLEY

CITY           SKY/WX    TMP DP  RH WIND       PRES   REMARKS
STOCKTON       CLEAR     44  36  73 W12       30.18R
MODESTO        CLEAR     43  33  68 W8        30.18S
MERCED         CLEAR     40  34  79 NW6       30.18S
LEMOORE        CLEAR     40  34  79 NW8       30.18S WCI  34
FRESNO         CLEAR     45  34  65 NW14      30.16F
HANFORD        CLEAR     45  38  76 NW9       30.18R
PORTERVILLE    CLEAR     43  37  79 NW9       30.16R
BAKERSFIELD    MOCLDY    45  39  79 NW3       30.15R
$$
CAZ011-012-071-230800-
NORTHERN MOUNTAINS

CITY           SKY/WX    TMP DP  RH WIND       PRES   REMARKS
YREKA          CLOUDY    30  29  96 E3        30.12S
MOUNT SHASTA   LGT SNOW  29  24  82 VRB6      30.05S WCI  23
ALTURAS        FLURRIES  26  21  81 NW8       29.98S WCI  18
$$
CAZ011-012-071-230800-
SIERRA NEVADA MTNS

CITY           SKY/WX    TMP DP  RH WIND       PRES   REMARKS
BLUE CANYON    LGT SNOW  24  23  96 CALM      29.99F VSB 3/4
TRUCKEE        PTCLDY    16  14  93 CALM      29.95S FOG
TAHOE VLY ARPT PTCLDY    18  14  84 SW5       29.93F WCI  11
MAMMOTH LAKES  MOCLDY    19   3  51 SW22      29.92R WCI   2
$$



USA.gov is the U.S. government's official web portal to all federal, state and local government web resources and services.